Wind_Speed
35 36 36 34 35 36 36 36 34 31 30 29 28 28 27 27 27 26 25 26 25 24 25 25 24 24 24 23 22 21 21 20 19 18 18 18 16 15 13 14 14 13 12 11 11 10 10 11 11 11 10 9 9 9 9 8 8 9 9 9 10 11 12 12 10 12 16 16 16 18 17 17 19 20 19 18 18 17 17 18 18 19 21 23 24
35 36 36 35 36 37 36 36 35 32 30 29 28 28 28 28 28 27 26 26 26 26 26 25 26 26 25 24 24 23 23 22 20 20 20 20 19 17 15 15 15 15 14 13 13 12 11 12 13 12 12 11 11 11 10 11 11 12 12 12 13 14 14 15 14 13 16 18 18 19 19 18 19 20 18 16 15 15 16 18 18 18 19 20 21
35 35 36 35 36 36 35 34 34 33 31 30 29 29 28 29 29 28 27 26 27 28 27 26 26 27 26 25 25 24 24 24 23 21 22 21 21 19 17 17 17 16 16 15 14 14 13 13 14 13 13 13 13 13 12 13 13 12 13 13 13 15 15 16 17 16 17 19 19 20 20 18 19 19 18 18 18 19 20 19 18 17 17 18 20
34 35 35 34 34 35 35 34 34 33 32 31 30 29 28 28 29 29 28 26 27 28 29 28 27 28 28 26 27 26 25 26 25 23 23 23 22 21 19 18 19 18 18 17 16 15 15 15 15 15 14 14 14 14 14 14 14 14 14 14 13 14 14 14 15 16 16 18 20 21 20 20 20 20 20 20 20 19 18 16 15 15 16 17 18
34 34 34 34 34 35 36 34 34 35 33 31 31 31 29 28 29 29 28 27 28 28 29 29 29 29 29 27 28 28 26 27 27 25 24 24 23 22 21 20 20 20 19 18 17 17 17 17 17 16 16 16 16 15 15 15 15 15 15 15 15 15 16 15 16 16 17 19 22 22 21 20 21 21 20 18 18 17 15 15 15 15 16 17 16
33 34 34 34 36 37 37 36 35 36 34 32 32 31 30 29 29 30 29 28 28 28 29 30 30 31 31 28 28 29 28 27 28 27 25 24 24 23 21 21 21 21 21 20 19 19 19 19 18 18 17 18 17 16 16 16 16 16 16 16 16 15 15 15 15 17 19 21 22 23 23 21 21 20 16 14 14 15 16 18 18 16 15 15 16
33 34 34 34 36 38 38 37 36 36 35 33 32 32 31 30 29 30 30 30 29 28 28 29 29 31 32 30 29 30 30 29 29 29 27 25 25 24 22 22 22 22 22 21 20 20 20 20 20 19 19 20 19 17 16 16 16 17 17 17 16 15 15 15 15 17 19 20 21 21 21 20 18 17 15 13 14 16 17 18 17 15 14 15 18
33 34 34 34 36 38 39 37 36 36 35 34 32 32 31 31 30 31 31 30 30 29 28 29 29 29 31 31 30 30 31 31 30 30 29 27 25 25 24 23 23 23 22 22 21 21 21 21 20 21 21 21 21 20 18 17 17 17 17 17 16 16 16 16 16 17 19 19 20 19 19 18 17 18 18 16 15 16 15 13 12 13 14 16 20
33 33 34 34 35 37 37 36 36 36 36 36 34 32 32 32 31 32 32 31 31 30 29 29 29 28 29 31 30 30 31 32 31 31 31 29 27 26 26 25 24 23 23 23 22 22 22 21 20 21 22 22 22 22 21 20 18 18 18 17 17 17 16 16 17 18 19 19 20 19 18 17 16 17 17 14 13 13 11 9 11 14 16 19 22
33 33 33 33 33 35 36 35 35 36 36 37 36 34 33 32 31 31 32 32 31 31 31 30 29 29 28 30 30 29 30 31 32 33 33 32 30 27 26 27 26 25 24 24 23 23 22 22 21 20 21 23 24 24 23 22 21 21 20 18 17 16 17 17 18 19 19 19 20 18 16 15 14 14 14 13 12 10 8 10 13 16 18 19 20
33 32 32 31 31 33 35 34 34 36 36 37 37 35 34 33 32 31 32 32 31 31 31 30 30 29 28 29 29 29 29 30 32 34 35 34 33 30 27 27 27 26 25 25 24 24 23 22 22 22 21 21 22 23 24 24 24 24 24 22 20 19 18 18 18 18 18 19 20 18 15 15 14 12 13 13 11 10 11 13 16 17 16 15 16
33 32 31 31 31 33 35 34 34 35 36 37 38 36 34 34 33 32 31 33 32 30 30 31 30 29 29 28 28 29 28 28 31 34 35 35 34 32 29 27 27 27 27 26 25 25 24 23 22 21 21 21 21 22 22 24 25 25 26 26 25 25 24 24 24 23 22 20 20 19 17 15 14 12 10 10 10 12 14 15 16 16 15 15 16
31 32 32 32 32 33 34 34 34 35 36 37 37 37 35 33 34 33 31 32 32 31 30 31 30 29 29 29 29 28 28 28 30 33 35 36 35 33 30 27 26 26 26 26 26 25 25 25 23 22 21 20 21 23 24 25 25 27 27 27 27 27 28 29 29 30 30 27 25 25 23 18 16 14 11 10 12 14 14 14 15 15 16 17 19
31 31 32 33 32 33 34 34 34 34 35 35 35 36 36 33 33 33 31 30 32 31 29 29 30 29 29 30 30 28 27 28 30 32 34 35 36 35 32 27 25 25 25 26 26 26 26 26 26 25 24 22 21 22 23 25 26 26 26 26 26 26 26 27 28 29 31 32 32 33 32 27 24 23 21 19 17 16 13 13 13 15 19 21 23
30 31 31 32 32 33 34 34 34 34 34 34 34 35 35 34 32 32 31 30 30 31 29 28 29 29 28 28 29 28 27 27 29 31 33 34 35 36 34 29 24 23 24 25 26 26 26 26 26 26 26 25 24 22 21 22 23 23 23 23 24 25 25 27 26 25 25 27 30 31 31 28 26 26 25 20 16 15 15 16 17 18 20 20 21
30 32 31 32 33 33 33 33 33 33 33 33 33 34 35 34 32 31 31 29 28 28 29 27 27 28 28 27 26 26 26 27 29 31 32 33 33 35 36 33 27 23 21 23 25 26 26 26 26 26 26 26 25 24 22 21 21 20 21 21 21 22 23 24 23 22 21 21 22 23 22 21 21 22 21 18 17 18 20 21 21 18 15 15 16
30 33 33 33 33 33 33 33 33 33 33 33 33 34 34 34 33 31 30 28 27 27 28 27 27 27 27 28 27 25 25 26 28 30 32 33 33 34 35 35 32 28 24 21 21 23 25 26 27 27 26 26 26 25 23 22 22 21 21 20 20 20 21 20 19 20 20 19 20 21 20 20 21 22 22 20 19 20 21 20 18 12 10 10 10
30 33 34 34 34 34 33 33 33 32 33 33 32 32 33 34 33 32 31 28 27 27 27 27 27 26 27 28 28 27 25 25 26 28 30 33 33 33 35 34 31 30 29 26 24 23 23 26 27 27 27 27 26 25 24 24 24 24 23 21 21 22 21 19 17 17 18 18 19 21 22 23 23 22 20 17 17 19 19 18 13 9 9 10 9
31 34 35 34 33 33 33 33 33 32 32 33 32 31 33 34 33 32 31 29 27 27 26 26 26 26 26 27 28 29 28 27 27 27 29 31 32 33 34 33 30 29 29 30 30 29 28 28 29 30 30 30 29 26 24 24 25 26 24 22 22 23 22 19 16 17 17 16 16 19 21 21 19 16 13 12 13 15 15 13 10 8 9 10 10
32 32 33 33 32 33 34 34 33 32 32 32 32 32 31 32 32 32 31 30 28 27 26 26 25 26 26 26 28 30 30 30 31 31 32 32 33 34 34 33 31 29 29 29 29 30 31 32 32 33 34 34 34 32 29 27 26 26 24 22 21 21 19 14 12 11 9 7 7 10 13 14 12 10 11 12 12 13 12 11 8 7 8 9 11
30 30 31 32 33 34 34 34 34 32 32 33 32 32 31 31 32 33 31 30 29 28 27 26 25 25 26 26 27 29 30 30 31 33 35 36 36 36 36 35 33 31 29 28 28 27 28 30 31 33 34 36 36 35 34 32 29 26 24 22 21 19 16 12 9 7 5 4 5 8 9 9 8 8 11 12 10 9 10 9 6 6 8 10 11
28 29 31 31 31 33 33 33 33 32 31 33 33 32 31 31 31 32 31 29 30 30 29 27 26 25 25 26 27 28 29 31 32 32 34 37 38 39 38 37 35 32 28 27 27 27 26 26 28 30 32 33 33 34 34 34 33 30 27 25 23 20 18 15 12 11 10 9 10 10 9 8 7 8 10 11 6 2 3 3 4 6 8 9 8
28 29 31 30 30 32 32 32 33 32 31 33 33 31 31 31 30 31 31 29 29 29 29 28 26 24 24 26 27 28 28 30 34 34 33 34 37 40 40 38 36 34 30 27 26 26 26 26 26 26 28 29 29 30 30 31 32 33 31 29 26 24 22 19 18 18 17 16 15 13 11 9 9 10 11 9 4 3 2 5 7 8 8 8 8
28 28 30 31 30 31 31 31 33 32 32 33 33 31 31 31 29 31 31 29 28 27 28 28 27 25 24 24 26 28 27 28 31 34 34 34 35 38 40 40 38 36 32 28 25 24 24 25 25 25 25 26 26 26 26 27 27 29 29 29 28 27 26 25 23 21 20 19 18 15 11 9 9 9 8 7 5 6 9 10 9 8 7 8 10
28 28 29 30 30 30 30 31 32 31 31 32 32 31 31 30 28 29 30 28 27 26 27 27 27 26 25 24 23 25 26 26 27 31 33 34 34 36 38 40 40 39 36 32 27 23 22 22 23 25 25 25 25 25 25 25 24 25 26 26 24 24 24 24 22 19 16 15 14 12 11 10 9 8 8 7 7 8 7 7 7 6 5 7 8
28 28 28 29 30 31 30 30 31 31 30 31 31 30 30 29 28 27 28 27 26 25 25 25 25 25 24 24 23 23 24 25 26 28 31 33 35 36 37 39 40 40 39 34 29 26 24 21 19 20 22 23 24 25 25 24 23 25 25 23 20 20 19 18 16 15 14 12 11 9 7 5 7 9 8 6 5 4 4 6 5 3 3 5 6
27 28 28 28 29 31 31 31 32 31 30 30 30 29 28 28 27 27 27 26 25 24 24 24 24 23 23 23 23 22 23 25 25 27 31 33 35 36 37 38 39 41 41 37 32 29 27 23 19 17 16 16 19 22 24 23 22 23 23 21 18 17 15 13 12 11 11 9 6 5 5 7 8 8 6 4 4 7 6 5 3 2 2 4 5
27 27 28 28 29 30 31 31 32 32 30 31 30 29 29 29 27 27 28 28 26 25 24 24 24 23 22 23 23 22 23 25 26 28 32 35 36 37 38 39 40 41 42 41 36 31 26 23 20 17 15 14 15 16 18 18 18 18 18 16 15 13 12 11 9 7 8 9 9 9 11 11 10 8 6 7 9 9 6 4 2 1 0 2 5
28 28 28 28 29 30 30 31 32 31 30 30 29 28 29 30 27 26 28 29 28 26 25 25 25 24 23 23 24 23 23 25 26 28 31 33 35 37 38 38 39 40 40 40 37 31 25 22 20 18 16 15 14 14 14 14 14 14 13 11 10 10 12 13 11 11 14 17 18 19 19 15 11 9 8 9 10 7 5 4 2 1 2 2 4
26 28 29 29 30 30 30 30 32 32 30 29 28 24 23 25 26 26 28 30 30 29 27 26 26 25 23 24 26 26 24 25 26 26 26 28 30 33 34 35 36 37 36 37 36 30 24 21 21 20 18 17 15 15 14 14 14 13 12 11 11 11 13 16 17 18 21 23 24 23 17 11 8 7 7 8 8 6 5 4 2 2 3 4 4
25 26 27 28 30 31 30 30 32 31 28 30 31 27 22 20 20 23 27 30 29 27 26 26 27 27 26 25 27 27 23 22 24 23 22 23 25 27 29 31 33 35 35 35 35 30 24 21 21 21 19 19 18 17 16 16 15 13 11 12 13 13 13 16 18 20 19 16 13 10 6 4 4 5 7 8 7 6 5 4 2 2 3 4 5
23 25 29 29 30 31 29 29 31 29 27 31 34 30 26 22 17 16 22 26 24 22 22 22 24 26 25 23 24 25 23 21 22 21 19 20 22 24 25 25 28 31 33 32 31 29 26 23 21 20 20 19 18 18 16 14 14 14 13 13 14 14 14 15 15 14 11 6 4 5 6 6 6 6 7 7 6 5 5 5 3 2 3 3 4
14 15 18 21 26 31 29 28 29 28 26 30 31 29 27 24 20 18 18 20 20 19 19 18 19 21 21 19 19 21 21 19 19 19 18 19 22 23 22 21 23 26 30 30 28 27 26 24 22 20 19 18 17 17 16 14 13 14 15 15 15 15 15 14 12 11 9 9 12 14 12 8 6 7 8 7 5 6 5 3 2 3 4 3 4
9 11 15 18 17 24 29 28 28 28 27 29 30 28 27 26 25 24 21 17 16 17 17 17 17 17 16 16 14 15 16 16 16 16 17 19 21 22 21 21 22 25 28 29 27 25 24 22 21 19 18 18 17 17 16 15 13 13 15 17 16 15 13 12 12 12 12 12 13 13 11 8 7 9 10 9 7 6 4 2 3 4 3 3 3
4 7 12 19 24 24 25 27 29 27 25 28 30 27 25 27 29 28 24 18 16 16 16 16 17 17 16 16 15 14 15 15 15 16 17 20 21 22 22 23 24 25 28 28 26 23 21 20 20 20 19 19 18 19 18 17 16 16 18 17 14 11 11 13 13 13 13 12 11 11 10 10 10 10 9 7 5 3 2 4 5 4 2 3 4
20 15 8 11 21 28 24 22 28 28 24 25 27 26 25 26 26 27 25 21 19 19 18 17 17 17 17 18 18 17 18 17 16 17 18 18 19 22 24 25 24 25 28 27 21 18 17 17 17 19 20 19 19 20 20 19 18 17 16 14 11 11 14 15 15 15 14 12 9 8 8 8 9 7 5 3 5 6 7 7 5 3 3 3 4
25 26 20 9 10 22 23 17 21 23 22 23 23 20 18 17 16 17 20 20 20 22 22 19 17 15 15 16 18 18 18 17 17 16 15 15 17 19 20 19 18 18 21 19 13 11 12 13 13 15 18 19 19 19 17 14 13 12 12 12 13 17 17 16 15 15 14 11 8 6 6 6 6 6 5 5 7 7 6 4 3 4 5 5 6
26 29 28 20 8 10 12 5 7 12 17 20 19 18 17 14 12 15 19 21 22 21 19 15 14 13 12 13 16 17 17 16 15 15 14 15 17 15 11 10 11 12 11 9 6 6 7 6 7 9 13 16 18 16 14 13 13 14 16 17 19 21 18 14 12 11 11 11 8 6 5 5 5 6 7 6 6 6 5 5 5 5 5 7 8
25 28 30 28 21 16 14 11 11 13 19 21 20 20 21 18 17 19 20 19 19 17 15 13 12 10 8 11 14 14 13 12 11 10 10 11 11 9 6 7 10 12 10 8 6 6 7 8 9 12 14 16 17 16 16 17 17 18 20 20 20 18 14 11 9 8 8 10 10 7 6 8 9 8 8 6 6 6 4 5 5 4 4 7 10
24 26 30 32 27 21 19 19 19 20 22 25 26 24 22 19 17 18 17 16 17 16 14 13 12 10 9 13 15 14 12 12 12 11 11 11 12 13 14 15 16 16 15 14 13 13 13 13 14 15 16 17 19 19 18 18 19 19 19 16 13 11 9 8 8 7 7 9 10 9 8 9 10 8 6 5 5 4 3 5 6 5 6 8 10
25 25 28 32 31 25 23 24 26 28 29 30 30 29 27 24 21 20 19 18 18 20 20 18 15 12 12 14 15 15 17 19 20 19 20 20 21 22 22 21 20 20 20 19 18 18 18 18 18 19 19 19 19 18 16 14 14 15 14 9 6 7 7 7 7 8 7 8 8 8 7 5 6 5 3 2 2 3 4 5 7 8 8 9 10
27 26 26 29 32 29 25 25 28 31 32 32 32 31 29 27 26 26 24 22 21 24 26 23 19 17 15 14 16 20 23 24 24 25 25 25 25 25 24 23 23 22 20 19 19 20 20 20 20 20 21 20 19 17 15 14 12 11 8 6 6 8 7 4 4 5 5 5 3 1 2 2 3 4 4 4 5 5 6 6 7 8 8 9 10
25 26 27 29 31 28 24 25 29 31 30 30 32 32 30 28 26 26 27 26 25 25 25 22 21 22 22 21 24 27 28 27 27 26 25 25 25 24 23 22 22 21 20 20 20 20 20 20 20 20 19 19 18 17 16 15 14 13 11 10 11 11 9 7 7 7 7 7 6 6 6 7 9 10 9 8 8 8 8 8 9 10 10 11 12
22 24 26 28 29 28 26 27 30 29 27 27 31 34 33 30 27 26 27 27 26 26 25 23 22 23 24 25 27 29 29 28 28 27 25 24 23 23 21 20 20 20 20 20 19 18 19 20 20 19 19 18 17 17 16 15 14 14 14 14 14 13 12 11 11 10 10 9 8 7 7 8 9 9 10 10 11 11 11 11 11 12 13 13 13
20 21 23 24 26 28 28 28 29 29 28 27 28 29 30 29 28 27 27 27 27 26 26 25 25 25 26 27 28 29 28 27 27 26 26 25 24 22 22 21 20 20 20 20 19 19 20 21 21 20 20 19 19 18 18 17 16 16 16 16 15 15 14 13 12 11 10 9 8 8 8 8 9 10 11 11 11 11 11 11 11 12 13 13 14
22 21 21 22 24 25 25 26 28 29 28 26 24 23 23 24 24 25 26 28 29 29 29 28 27 27 27 27 28 27 27 27 27 26 26 25 25 24 23 23 22 21 22 22 22 21 22 22 22 22 21 20 20 20 20 19 18 18 17 16 16 15 13 12 11 10 9 8 8 8 9 9 9 10 10 10 9 10 10 11 11 11 12 12 13
23 23 22 22 22 23 24 26 26 26 26 24 22 20 19 19 20 21 24 27 29 30 31 32 31 30 29 29 29 28 28 28 28 26 25 24 24 23 23 23 24 23 24 24 24 24 23 22 22 22 22 22 22 21 21 20 19 18 16 15 14 14 12 11 10 10 9 7 7 7 8 9 9 9 8 8 9 10 10 10 9 9 10 11 12
20 21 21 21 21 21 22 23 24 24 23 21 20 18 18 18 19 20 23 25 28 29 30 30 30 30 29 29 28 28 28 28 27 25 24 23 22 22 24 25 26 26 26 26 26 25 24 24 23 23 24 23 22 21 20 19 18 17 16 14 13 12 11 9 8 9 8 8 7 7 8 9 8 7 7 8 8 9 9 8 9 10 12 13 14
17 18 19 21 22 22 21 21 21 22 23 21 19 18 18 19 20 22 24 26 28 28 28 28 28 28 29 28 27 27 27 27 27 27 27 26 26 26 28 28 28 29 29 28 27 26 25 24 24 24 24 23 21 20 19 18 17 16 15 13 12 10 8 7 7 7 6 6 7 8 8 8 7 7 7 7 7 7 8 9 11 12 13 13 13
16 17 18 20 22 23 24 23 23 22 22 21 20 20 20 20 21 23 25 27 29 28 27 26 26 27 28 28 28 28 29 30 30 30 31 30 30 29 30 30 30 29 28 27 26 25 25 24 24 24 24 23 22 20 20 19 18 17 15 13 11 10 8 8 8 7 6 5 6 6 5 4 5 6 6 6 6 7 8 9 10 10 11 11 12
17 17 17 19 21 23 24 24 23 22 21 20 19 19 20 21 22 23 24 25 26 26 26 26 27 27 28 29 30 30 31 32 32 32 32 32 31 31 31 31 30 29 28 27 26 25 24 24 23 23 23 22 21 20 20 19 17 15 13 11 10 10 10 9 9 8 7 6 7 6 5 5 6 6 6 7 8 8 7 8 9 10 10 10 11
Wind_Direction
187 186 186 186 186 186 188 188 189 190 191 192 194 196 198 198 197 198 197 197 198 198 195 194 194 195 195 195 195 197 198 200 203 207 210 212 212 213 215 217 218 217 218 221 221 222 225 230 236 238 236 238 242 247 253 248 231 224 230 237 242 243 240 238 243 262 273 277 277 278 281 282 281 282 286 289 289 288 289 289 289 290 289 290 291
187 186 186 187 186 186 186 187 188 188 190 191 194 196 198 198 197 197 197 196 197 197 196 196 196 196 196 196 196 197 199 200 202 205 210 213 213 214 214 217 221 220 220 222 222 221 223 229 234 236 236 236 237 239 245 249 240 228 225 228 235 240 240 239 241 253 269 274 275 278 281 281 282 285 290 295 297 298 295 292 291 292 291 291 292
188 186 187 188 186 185 185 185 187 187 188 191 194 196 196 197 197 196 196 195 196 197 197 197 197 197 196 197 197 198 199 201 202 203 209 212 213 213 214 216 218 220 220 221 221 221 222 227 233 236 235 235 236 238 242 247 249 246 240 235 232 234 239 240 239 245 260 270 275 278 281 282 282 285 291 295 297 298 297 295 294 292 290 291 292
188 186 187 187 184 184 184 184 185 187 189 191 193 195 194 195 196 196 196 195 195 196 197 198 198 197 197 198 198 198 199 201 202 203 208 212 214 214 214 216 218 219 221 221 220 220 220 224 229 232 234 235 235 238 241 244 249 253 255 254 249 248 250 250 250 252 261 272 277 278 281 285 286 289 292 293 295 297 296 296 297 294 293 294 294
189 186 186 185 183 184 184 185 186 187 190 192 193 194 193 193 194 194 196 196 195 195 196 198 199 198 197 198 198 198 200 200 201 202 206 211 214 215 214 217 219 220 222 223 222 222 222 224 227 229 232 236 236 236 237 241 244 246 250 253 254 255 256 257 260 262 266 272 277 281 284 285 287 290 292 291 292 294 294 295 296 294 294 295 295
189 186 186 186 184 184 185 186 187 189 190 192 193 194 193 193 193 193 195 196 195 195 196 197 199 200 198 198 198 199 200 201 202 202 205 208 212 214 215 217 219 222 224 226 226 226 225 226 227 228 230 234 236 235 234 237 241 244 246 248 249 251 254 257 258 260 263 266 272 278 281 283 285 287 290 291 289 290 294 296 293 292 295 297 300
189 187 188 189 186 185 186 187 188 189 190 192 193 193 194 194 193 193 195 196 196 196 197 198 200 200 200 200 200 200 200 201 203 204 205 207 210 212 214 217 219 221 224 227 227 227 228 228 228 228 229 232 235 236 235 236 238 243 246 248 250 250 254 258 259 259 261 263 267 272 277 283 285 287 293 295 287 287 293 290 289 295 302 302 304
190 187 189 191 188 187 188 188 188 189 190 193 194 194 196 196 194 194 194 196 197 197 196 197 199 200 200 201 201 201 201 202 203 205 206 207 210 212 213 216 218 221 224 226 228 228 228 228 229 229 230 231 233 234 235 237 238 241 245 248 250 251 252 255 257 260 262 265 268 272 279 286 290 292 294 287 276 280 286 284 290 304 308 306 306
190 188 190 193 191 188 189 189 189 189 190 192 195 196 197 197 195 194 195 197 198 198 197 196 197 198 200 201 202 202 202 203 204 206 207 208 209 212 214 216 218 221 223 225 228 229 229 229 230 231 231 232 234 236 236 236 237 240 244 247 248 250 252 253 254 258 263 266 269 274 279 282 287 290 290 283 278 280 286 298 307 310 310 309 308
190 190 191 194 192 189 189 190 190 190 190 192 195 197 197 198 197 195 195 198 200 200 199 196 195 198 198 200 202 203 204 205 206 207 209 209 209 211 214 216 217 220 222 224 227 229 230 231 233 235 234 233 234 236 238 238 237 238 241 243 244 246 248 251 253 255 260 263 267 271 274 277 282 287 290 296 303 305 315 326 321 315 315 312 307
189 189 190 192 192 189 190 192 191 191 191 192 194 196 196 197 198 196 195 197 201 203 201 197 195 197 198 199 201 203 205 206 207 208 211 211 211 210 213 215 217 219 222 224 227 229 231 233 235 238 241 240 238 237 240 242 243 242 242 242 243 245 246 249 252 254 257 262 266 268 269 272 277 284 294 305 315 322 327 325 318 315 315 311 307
186 187 188 190 191 190 190 192 193 193 192 192 194 195 195 196 198 198 195 195 199 202 203 201 198 197 198 199 201 203 207 208 208 209 211 213 213 212 213 215 216 219 222 224 226 229 231 233 234 236 239 243 244 241 241 244 247 249 250 249 248 250 251 252 254 256 258 262 269 269 268 273 282 287 299 313 318 321 320 317 314 313 311 310 307
185 186 186 188 190 190 190 192 195 195 194 193 194 194 195 196 196 197 195 194 196 201 204 204 202 199 198 199 202 205 208 210 210 210 212 215 215 213 214 216 218 219 221 224 226 228 230 232 234 235 236 239 240 239 238 242 247 249 252 254 254 255 256 256 256 257 258 259 263 266 267 271 278 280 285 298 307 311 310 307 310 312 310 308 303
185 185 184 186 189 189 190 192 195 196 196 194 193 194 197 197 197 197 196 194 194 198 203 205 206 205 201 199 202 206 210 212 212 213 215 217 218 216 215 216 220 221 222 223 226 228 230 232 233 235 237 239 240 238 234 237 243 247 248 250 253 255 257 258 259 258 257 255 256 260 265 268 271 275 278 285 291 295 296 297 304 307 304 302 301
183 184 185 186 188 188 190 192 195 197 196 195 194 194 197 198 197 196 196 195 194 197 201 205 207 209 208 204 202 205 212 215 214 215 217 219 220 219 217 217 220 224 225 226 226 228 230 232 234 236 237 239 240 240 235 233 237 243 247 249 252 256 258 261 264 264 262 258 257 261 268 273 276 278 280 280 279 279 281 286 295 301 298 298 303
182 183 185 187 188 188 189 191 194 196 196 195 195 194 196 198 198 196 196 197 197 196 199 204 207 209 211 211 208 208 213 217 216 215 218 220 221 220 220 220 222 227 229 228 228 229 230 231 234 237 239 239 240 239 236 232 230 235 243 248 251 255 259 264 269 271 269 267 266 268 273 277 277 276 275 272 270 276 282 286 294 298 291 288 297
184 185 187 188 188 188 188 189 192 195 196 195 195 195 195 196 197 196 195 197 198 197 198 203 207 208 210 213 215 215 216 218 219 218 218 219 218 218 220 221 223 228 232 231 229 230 230 231 233 235 238 240 241 240 237 233 230 230 236 243 248 251 256 263 271 276 277 277 275 272 269 267 265 266 268 271 275 281 284 287 293 295 280 275 282
188 187 188 189 189 188 188 190 191 193 195 196 195 194 194 195 196 196 195 197 198 197 197 201 205 207 208 210 214 217 219 221 221 220 219 218 216 216 219 220 222 228 233 234 234 234 233 234 234 235 237 239 241 242 240 236 232 231 232 238 247 253 256 261 267 273 277 278 273 266 260 257 259 262 267 274 281 284 282 281 287 285 271 276 287
192 189 189 189 189 189 189 191 191 192 193 194 194 194 193 193 194 195 196 198 199 197 197 200 204 206 207 209 211 214 218 222 222 221 220 219 215 215 216 216 218 224 230 234 237 238 238 238 237 237 238 239 241 242 242 239 235 234 233 235 243 252 258 264 267 269 273 274 268 259 255 255 259 266 275 283 290 289 278 271 274 269 265 280 300
196 191 188 187 188 190 191 192 192 192 192 191 193 194 193 191 191 193 195 198 201 200 198 199 203 206 207 209 210 211 215 220 223 222 221 220 218 215 213 213 215 219 224 229 233 235 237 238 239 240 240 241 242 242 242 241 239 238 235 232 238 248 255 260 258 258 267 275 267 257 253 255 263 279 289 289 292 287 272 263 269 267 266 287 308
196 190 187 188 189 191 193 194 192 192 192 192 193 195 193 191 190 191 194 197 200 202 201 200 203 205 207 209 211 212 213 218 222 223 222 222 221 216 213 213 215 218 221 225 229 232 235 236 238 240 242 243 244 243 242 242 242 240 237 234 237 243 245 241 239 248 264 277 273 263 257 258 267 281 285 286 287 279 267 265 264 256 267 292 308
194 189 186 188 191 192 194 194 192 193 193 192 193 195 194 193 191 190 193 196 198 201 204 203 203 204 206 209 213 214 214 216 220 223 224 224 223 219 216 217 219 219 220 224 228 231 234 236 237 239 243 245 247 247 244 243 243 242 240 238 236 237 239 241 248 261 269 272 272 265 257 255 268 282 287 289 288 207 200 239 260 269 286 305 311
192 187 186 189 192 193 193 192 192 194 194 192 192 193 192 192 191 190 193 196 196 200 203 205 206 206 207 210 213 216 217 216 218 221 222 223 223 222 221 221 221 220 221 224 228 231 234 236 238 240 242 245 248 248 247 245 244 244 244 242 239 238 240 245 253 260 264 268 268 265 260 259 272 285 282 274 250 192 236 298 310 312 320 322 309
188 186 186 190 193 193 193 193 193 196 195 191 191 191 191 192 192 191 193 196 196 197 200 203 206 208 209 211 211 213 217 218 219 220 221 221 222 223 224 223 222 222 223 225 228 233 235 237 238 240 241 243 245 247 246 245 243 243 245 244 244 246 246 248 253 256 257 259 258 258 261 262 268 276 262 237 244 288 302 311 313 313 316 311 304
186 186 187 190 193 194 195 194 193 196 195 189 189 191 190 191 191 191 192 194 195 196 197 200 204 207 209 211 211 210 212 215 218 219 219 221 222 223 225 225 223 223 224 225 227 232 236 236 235 237 238 239 242 243 243 242 240 238 239 242 245 248 249 249 250 248 245 245 244 248 259 257 245 241 238 244 277 300 302 297 293 295 307 308 305
186 187 188 191 194 195 195 194 193 195 193 188 188 191 190 190 191 191 191 194 196 197 197 198 201 205 208 209 208 207 207 209 213 217 217 220 222 223 224 225 225 225 225 225 226 231 237 240 238 237 237 237 238 239 238 237 235 234 235 237 239 242 244 244 241 236 233 235 234 238 243 219 196 204 226 259 280 262 248 266 280 293 310 307 311
186 187 189 192 195 195 196 194 193 194 192 188 189 191 191 191 191 189 190 194 196 196 196 197 198 201 205 207 206 207 206 206 208 212 215 217 220 222 222 223 224 225 224 223 225 229 236 244 247 248 249 245 240 237 234 231 230 229 229 230 233 236 237 232 228 228 227 223 214 193 162 153 170 193 219 239 206 196 222 255 256 226 268 306 320
186 188 191 193 195 196 196 193 192 193 192 189 190 192 191 191 191 190 191 193 194 194 195 196 197 197 199 202 203 206 208 208 208 211 214 215 216 218 219 221 222 223 223 224 225 228 234 244 250 253 256 251 240 232 228 225 224 223 223 226 230 233 228 219 212 199 184 175 167 167 174 182 190 196 205 205 192 195 227 258 236 207 291 325 312
187 188 192 195 197 197 193 191 190 190 189 186 187 190 191 190 189 190 193 195 196 196 195 195 196 197 198 199 200 203 208 210 212 215 217 217 217 217 219 220 221 223 225 225 225 226 230 237 243 244 242 237 228 218 214 215 216 215 216 219 222 220 213 201 185 172 174 180 187 192 193 191 186 184 196 203 195 200 236 256 255 330 343 313 300
188 191 193 197 198 196 192 189 188 188 187 181 176 173 178 184 187 188 192 195 197 198 198 198 198 198 199 201 201 203 207 210 213 218 220 219 219 221 223 224 224 225 226 224 222 222 224 227 231 233 230 224 219 213 211 214 215 211 209 213 216 211 199 189 187 192 196 197 198 197 192 183 176 183 202 203 189 192 223 239 246 294 301 304 316
189 192 197 200 198 195 192 188 187 187 182 173 167 160 156 162 175 182 186 191 196 198 199 200 201 200 201 202 200 201 206 209 211 216 219 216 216 220 224 227 227 227 227 223 218 217 222 224 226 228 227 224 224 223 223 221 214 205 202 211 218 212 194 185 190 196 197 195 197 198 197 198 207 214 216 206 187 187 212 219 209 259 288 306 329
197 195 198 200 197 195 193 188 186 186 177 167 166 162 152 144 144 155 169 179 188 194 195 197 198 199 201 202 198 197 203 208 210 215 219 218 217 218 219 222 225 227 226 221 214 215 220 223 224 225 226 227 227 225 223 219 212 209 210 211 210 202 184 174 176 182 183 185 197 208 219 235 247 246 233 215 190 190 209 210 200 255 289 296 320
228 221 219 213 201 195 193 190 187 184 173 166 167 166 159 150 139 134 146 161 171 178 181 184 188 192 196 199 201 202 205 207 209 213 215 215 214 212 211 212 217 219 218 214 212 214 219 222 224 223 223 227 227 222 222 223 219 215 210 201 189 178 167 162 164 171 184 196 197 198 208 225 243 246 242 235 221 215 216 214 229 260 269 277 320
251 268 284 286 253 211 195 191 190 185 172 167 170 170 165 161 153 144 141 146 155 162 165 166 168 173 180 185 190 197 200 200 200 200 201 201 201 200 200 202 206 211 212 211 211 214 217 221 225 222 220 225 224 216 214 218 215 203 189 179 170 163 167 183 192 188 188 196 203 208 211 207 209 223 230 229 224 218 217 240 260 260 269 298 347
358 285 275 283 280 254 217 193 188 185 174 168 171 172 168 165 162 157 153 152 152 152 153 155 157 158 162 163 162 166 172 174 177 178 179 182 185 188 193 197 199 203 207 209 211 214 215 220 224 222 220 220 214 205 203 204 200 190 179 173 172 177 193 208 207 198 197 208 217 216 205 193 198 213 220 220 220 226 254 269 266 267 307 351 10
31 12 329 274 276 275 258 214 191 186 175 165 167 171 168 163 163 165 166 163 154 147 146 151 155 157 160 160 159 160 163 164 167 170 172 176 181 186 191 195 197 201 204 206 211 216 218 222 226 221 217 212 202 196 195 191 187 184 181 179 184 189 191 192 190 189 195 203 207 209 208 204 207 211 213 238 256 250 246 251 262 294 338 344 334
36 23 14 359 280 276 273 241 199 183 167 153 154 155 150 145 150 157 155 147 142 140 141 145 149 153 161 167 169 171 173 174 177 181 184 188 190 190 193 197 200 201 200 201 206 211 215 225 230 219 207 197 188 184 182 174 169 172 173 175 180 181 179 181 186 191 197 200 201 210 210 201 209 225 237 259 270 265 259 268 295 324 326 310 297
38 30 30 41 29 304 294 262 169 145 131 126 125 125 126 129 129 124 120 120 124 128 132 136 138 138 148 164 172 175 177 179 183 186 188 190 190 190 196 198 190 180 174 174 182 190 193 204 206 189 177 172 169 165 157 147 147 158 164 169 176 177 175 172 172 183 200 205 202 208 204 195 217 239 235 241 267 282 290 288 277 275 298 314 315
39 34 42 55 49 16 13 47 68 79 91 96 99 110 123 129 120 111 109 112 115 114 116 122 122 120 138 158 163 163 161 161 163 166 167 173 177 172 153 139 136 130 118 110 117 133 133 131 136 140 143 145 141 136 135 136 142 153 162 168 170 169 166 165 165 177 202 205 200 208 218 214 222 231 228 232 258 277 296 313 306 298 315 324 323
38 34 42 57 56 36 32 49 53 54 66 75 80 87 96 101 103 104 104 106 107 105 104 107 104 105 131 146 144 137 130 122 116 113 111 109 106 104 104 105 103 100 99 100 104 109 110 113 118 124 130 135 133 129 128 131 137 146 151 154 155 153 154 165 179 190 203 207 211 226 230 213 209 219 228 237 256 279 325 343 334 324 318 313 313
41 35 39 52 57 47 37 44 50 50 53 60 66 71 75 79 86 93 95 96 99 99 98 97 99 111 131 138 133 123 115 109 102 96 94 93 93 93 96 99 99 100 102 104 106 108 108 107 109 113 119 126 130 129 127 127 136 148 152 148 147 158 168 183 198 204 207 210 220 243 256 233 206 210 234 283 303 315 327 324 315 313 316 318 318
47 41 39 49 56 51 41 43 51 53 53 53 56 61 68 74 79 83 86 88 94 99 99 96 96 103 113 120 121 117 110 104 99 94 92 91 91 91 93 97 101 103 105 107 111 115 115 111 109 108 108 110 114 118 118 117 124 138 149 148 147 153 159 173 192 196 190 181 182 233 319 24 70 66 37 13 357 347 344 340 334 333 337 339 337
49 47 45 48 54 54 51 53 56 55 53 54 56 59 64 70 75 79 81 81 85 91 93 90 90 94 98 103 108 108 104 101 99 97 94 92 91 90 90 93 96 99 103 107 111 114 114 111 106 102 99 99 102 107 110 111 114 115 112 110 117 122 120 114 111 113 111 102 87 74 69 65 61 55 46 36 27 20 19 17 8 358 353 349 345
50 51 49 50 53 53 52 57 61 61 58 60 64 65 65 66 70 75 79 81 81 83 83 82 83 86 90 96 101 102 100 100 100 99 97 96 93 90 88 86 85 88 93 97 102 105 106 103 99 95 92 90 93 98 99 100 105 107 102 99 101 101 95 90 86 80 77 77 73 66 61 57 50 40 30 23 18 14 11 7 0 353 348 345 343
54 54 53 52 54 53 51 52 59 63 61 59 60 62 64 66 68 72 77 80 82 82 82 81 81 81 84 90 94 96 96 97 98 97 97 96 95 92 90 87 84 85 88 91 94 94 92 89 87 86 85 84 87 90 91 91 93 95 92 90 88 83 77 75 74 67 60 61 59 51 42 37 33 28 22 16 10 5 0 355 351 349 345 343 342
59 58 56 53 54 55 54 53 56 60 61 59 56 56 60 64 66 69 74 79 81 82 82 82 82 82 83 86 89 90 91 93 95 95 96 95 93 91 88 85 83 85 89 92 94 93 91 90 90 89 89 89 90 90 89 89 89 89 86 84 81 76 70 68 67 60 51 46 45 40 33 26 24 23 16 7 2 359 355 349 346 345 343 343 341
64 62 61 60 59 59 60 60 61 62 62 62 61 60 60 63 66 70 74 77 80 83 83 83 83 83 83 85 87 88 90 91 91 91 90 89 87 86 85 85 85 86 87 89 92 92 93 95 98 98 97 96 93 89 87 86 86 86 84 83 80 75 68 65 65 61 54 47 45 44 37 29 23 18 9 1 357 355 353 350 348 347 345 344 341
67 67 67 67 67 66 65 65 68 70 69 67 66 65 65 66 69 73 76 77 80 83 84 84 85 86 86 87 89 91 92 92 91 90 89 87 84 84 87 89 90 88 85 86 88 89 91 94 96 97 96 93 90 87 85 82 81 81 81 79 75 69 62 58 56 54 47 42 43 46 38 28 20 13 9 6 3 359 356 352 345 338 335 334 334
65 72 75 75 75 76 75 72 71 74 76 75 71 69 68 69 73 77 80 81 82 84 85 85 87 89 90 90 91 92 93 93 92 92 94 95 95 95 96 97 96 94 92 90 88 88 89 91 91 91 91 90 88 87 84 81 78 77 75 72 69 64 57 51 48 46 46 48 51 48 37 27 23 20 14 7 1 355 348 341 333 330 330 331 330
62 69 77 80 80 81 82 81 78 77 79 80 79 76 75 76 77 80 82 83 84 85 86 87 89 92 93 93 92 91 90 90 90 93 95 97 99 101 100 99 98 98 97 95 93 91 91 91 91 90 89 88 86 84 82 78 75 71 69 69 69 66 64 65 65 68 76 78 68 57 47 39 39 33 18 3 354 348 343 339 338 337 334 329 325
63 65 70 77 80 80 81 81 82 82 82 84 85 84 84 83 83 83 84 85 86 87 87 87 89 91 93 94 94 93 92 91 91 92 92 93 95 96 96 95 94 93 92 91 90 89 88 88 87 85 84 81 79 78 75 73 70 66 65 69 71 71 72 74 75 78 86 79 60 52 56 57 51 43 28 13 6 5 5 4 359 348 334 324 321
Height
763 766 769 771 774 777 781 783 787 791 794 797 799 801 804 806 808 810 812 814 816 818 820 821 824 825 827 829 830 832 834 835 837 838 839 840 841 843 843 844 844 845 847 847 848 849 849 849 849 850 851 851 852 852 852 853 853 853 854 854 854 854 854 854 854 852 850 850 849 848 847 847 845 844 845 845 845 844 843 843 842 841 840 838 837
759 762 765 768 770 773 777 780 783 787 790 793 796 798 801 802 805 807 809 811 813 815 817 819 821 823 824 826 828 829 831 833 835 836 837 838 839 841 841 842 843 844 845 846 846 847 848 848 848 848 849 850 851 851 851 851 852 851 851 852 852 852 852 852 852 851 849 848 847 846 845 845 844 843 844 843 843 843 842 841 841 840 839 837 836
756 759 761 764 767 770 774 777 780 783 786 789 792 794 797 799 802 804 806 808 810 812 814 816 818 820 822 824 825 827 829 830 832 834 835 836 837 838 839 840 841 842 843 844 845 846 846 846 846 847 848 848 849 850 850 850 850 850 849 849 850 850 850 850 850 849 847 845 845 844 843 844 843 842 842 842 842 841 840 839 838 838 837 836 835
753 755 758 761 764 767 771 774 777 780 782 785 788 791 793 796 798 801 803 805 807 809 811 813 815 817 819 821 822 824 826 827 830 831 832 834 835 836 837 838 839 840 841 842 843 844 844 845 845 845 846 847 847 848 848 848 848 848 848 848 848 848 849 849 849 848 846 844 843 842 842 842 841 841 841 840 840 839 838 837 836 836 835 834 833
749 751 755 758 760 763 767 770 772 775 778 781 784 787 790 792 795 797 800 802 803 806 808 810 812 814 816 818 819 821 823 824 826 828 830 831 832 834 835 836 837 838 839 840 841 842 842 843 843 844 844 845 845 846 847 847 847 847 847 847 847 847 847 848 848 847 846 843 841 840 840 840 840 839 839 838 837 836 836 835 834 834 833 832 831
745 748 751 754 756 759 762 765 768 771 774 777 780 783 786 788 791 793 796 798 800 803 805 807 809 810 812 815 816 818 820 822 823 825 827 829 830 832 833 834 835 835 836 837 838 839 840 841 841 842 842 842 843 844 845 845 845 845 845 845 846 846 846 846 846 845 844 842 840 839 838 838 838 837 837 837 835 834 834 833 832 832 831 830 829
741 744 747 749 751 754 757 760 763 767 771 774 777 780 783 785 787 789 792 794 797 799 801 804 806 807 809 811 813 815 817 819 821 822 824 826 827 829 830 831 832 833 834 835 836 837 838 838 839 839 840 840 841 842 843 843 843 843 843 843 844 844 845 844 844 843 842 840 839 838 837 836 836 836 835 835 834 833 832 831 829 829 829 829 827
737 740 743 745 747 749 753 756 760 763 767 771 774 777 779 781 784 786 789 791 793 795 798 800 803 805 807 809 811 812 814 816 818 819 821 823 825 826 827 829 830 831 831 832 833 834 835 836 836 837 837 838 839 839 840 841 841 841 841 842 842 843 843 843 842 841 840 839 837 836 836 836 835 835 834 833 832 831 830 829 828 828 828 827 826
733 736 739 742 744 747 750 754 757 760 764 767 770 773 776 778 780 783 785 787 789 791 794 797 800 802 804 806 808 810 811 812 814 816 818 820 822 823 824 826 827 828 829 830 831 831 832 833 833 834 835 835 836 837 838 839 839 839 840 840 840 841 841 841 840 839 838 837 835 835 835 835 834 833 832 831 830 829 829 829 828 827 827 825 825
729 732 736 739 742 745 748 752 754 757 760 763 766 769 772 775 777 780 782 785 787 789 790 793 796 798 801 803 805 807 808 809 810 812 814 816 818 820 821 822 824 825 826 827 828 829 829 830 831 831 832 832 833 834 835 836 837 837 837 838 838 838 838 838 838 837 836 834 833 833 833 833 833 832 831 830 830 828 828 828 828 827 825 823 821
724 729 733 737 740 743 746 749 752 754 756 759 762 765 768 771 774 777 779 782 785 786 788 790 792 795 797 799 802 803 805 806 807 809 811 812 815 816 818 819 820 822 823 824 825 826 827 827 828 829 829 829 830 831 832 833 833 834 835 835 836 836 836 836 835 835 834 832 831 831 831 831 831 831 831 830 829 828 828 828 827 826 825 822 820
721 726 730 734 738 740 744 747 749 751 753 756 759 762 765 767 770 773 775 778 781 784 786 787 789 791 794 796 798 800 801 803 804 806 808 809 811 813 815 816 817 818 820 821 822 823 824 825 825 826 827 827 828 829 829 830 830 831 831 832 833 834 834 833 833 832 832 831 829 829 829 829 829 830 830 829 828 828 827 827 826 825 824 822 820
719 722 726 731 734 737 741 744 746 748 750 753 756 759 762 764 766 769 772 774 778 781 783 785 786 788 790 792 795 796 798 800 801 803 805 807 809 810 812 813 814 815 817 818 819 820 821 822 822 823 824 824 825 826 826 827 827 828 828 829 830 830 830 830 830 829 829 829 828 826 826 827 827 828 829 829 828 827 826 825 825 824 822 821 820
715 718 722 726 730 734 737 740 743 746 748 750 753 756 759 761 763 766 769 771 774 777 780 782 784 786 787 789 791 793 795 797 798 800 802 803 805 807 809 811 812 813 814 815 816 817 818 818 819 820 821 821 822 823 823 824 824 825 825 826 826 826 826 826 826 825 825 826 825 823 823 825 825 825 826 827 826 826 825 824 823 822 821 820 818
711 715 719 722 726 730 733 736 740 743 745 748 751 753 756 758 761 763 766 768 771 774 777 780 781 784 785 787 789 790 792 794 795 797 799 800 802 804 806 808 810 811 812 812 813 814 815 816 816 817 817 818 819 820 820 821 821 822 822 823 823 823 823 822 822 822 822 822 822 821 821 822 822 822 823 824 824 824 823 822 821 820 819 818 816
708 712 715 719 722 725 729 733 736 739 743 745 747 750 753 755 758 761 763 766 769 771 774 777 779 781 783 785 786 788 789 790 792 794 795 797 800 802 804 806 807 808 809 810 810 811 812 813 813 814 814 815 816 817 818 819 819 819 820 820 820 820 819 818 818 818 818 819 819 819 819 820 820 820 821 821 822 821 820 819 819 818 817 816 815
704 707 711 714 718 722 725 729 733 736 739 741 744 746 750 753 756 759 761 764 766 768 771 774 776 778 780 782 784 785 786 787 789 790 792 794 797 799 801 803 804 805 806 807 807 808 809 809 810 810 811 812 813 814 815 816 817 817 818 818 818 817 817 817 816 816 816 816 816 817 817 818 818 818 818 819 819 818 818 817 816 816 815 815 814
701 703 706 710 714 718 722 726 729 733 735 737 740 743 746 750 753 756 758 761 763 765 768 771 773 775 777 779 781 782 784 785 786 788 789 791 793 795 797 799 801 802 803 804 804 805 805 806 806 807 808 808 810 811 812 813 814 814 815 815 815 814 814 815 816 815 815 814 814 815 815 815 816 816 816 817 816 816 815 814 814 814 813 813 812
696 698 702 707 711 716 719 723 726 729 731 734 737 741 744 747 750 753 756 758 760 763 765 768 770 771 774 776 777 779 781 782 783 785 786 788 790 792 794 796 797 799 800 800 801 801 802 802 803 804 804 805 807 808 809 810 810 811 812 813 813 812 812 814 815 814 813 813 812 812 812 813 813 814 814 814 814 813 813 812 812 812 811 811 810
693 696 700 705 709 713 716 720 722 725 728 731 735 738 741 743 746 749 752 755 758 760 761 764 766 768 770 772 773 775 777 778 779 781 783 784 786 788 790 792 793 794 795 796 797 797 798 798 799 800 801 802 803 804 805 806 807 808 809 810 811 810 811 813 813 812 812 811 810 811 811 811 811 812 812 812 812 811 811 811 811 811 811 810 809
692 696 699 703 706 709 713 717 719 722 725 728 732 735 737 739 742 745 748 751 753 756 758 760 762 764 766 768 769 771 773 774 775 777 779 780 782 784 786 786 788 790 791 792 793 793 794 794 795 796 797 797 798 800 801 802 804 805 807 807 808 808 809 810 810 809 810 810 809 809 809 809 810 811 811 811 810 810 810 811 811 811 811 810 809
691 694 697 701 704 707 710 713 716 720 722 725 728 731 733 736 738 740 744 746 749 752 754 755 758 760 762 764 765 767 768 770 771 773 775 776 778 780 781 782 784 786 787 788 789 789 790 791 791 792 793 793 795 796 798 799 801 802 803 804 805 805 806 807 807 807 808 808 808 808 808 808 810 810 811 812 811 811 811 811 812 812 811 811 810
689 692 695 699 702 705 708 710 713 716 719 721 724 727 730 732 734 736 740 742 745 748 750 752 754 756 758 760 761 763 764 765 766 768 770 772 774 776 777 779 780 782 784 784 785 786 787 787 788 789 789 790 791 792 794 795 797 798 800 801 802 803 804 804 805 805 806 806 806 807 808 809 810 811 812 812 811 811 811 811 811 811 811 810 810
687 690 693 696 699 702 705 707 710 713 715 717 720 723 726 728 730 732 735 738 741 743 746 748 750 751 753 755 756 758 761 762 762 764 766 768 770 772 773 775 777 779 780 781 782 783 784 784 785 785 786 786 787 788 790 791 793 794 796 797 799 799 800 801 802 802 803 805 806 807 809 810 811 811 811 811 811 810 810 810 810 810 810 810 809
684 687 690 693 696 699 702 704 707 710 711 713 716 719 722 724 726 729 731 734 736 739 741 743 745 747 749 751 752 755 757 758 759 760 762 764 766 767 769 771 773 774 776 777 779 780 780 781 781 782 783 783 784 785 786 787 789 791 792 794 796 796 797 798 799 801 803 805 807 808 809 810 810 810 810 810 810 810 810 809 809 809 809 808 808
682 684 688 690 693 696 698 701 704 706 708 710 713 716 718 720 722 724 727 730 732 734 737 739 741 743 745 747 749 751 753 754 755 756 759 760 761 763 765 767 769 771 773 775 776 777 778 778 779 779 780 780 781 782 783 785 787 788 789 791 793 794 795 796 798 800 803 805 807 808 808 808 808 807 807 808 808 808 808 807 807 807 807 807 807
679 682 684 687 690 692 694 696 699 702 704 706 709 712 714 716 718 720 722 725 728 730 733 735 737 739 741 743 745 747 749 750 751 752 754 756 757 760 762 763 766 769 770 772 773 775 776 776 777 778 779 779 780 780 781 782 784 785 787 789 791 793 794 796 799 801 802 804 805 805 804 804 803 803 804 805 805 806 805 805 804 804 804 804 805
676 679 681 684 686 688 689 691 693 696 699 701 704 707 709 711 713 715 717 720 722 725 728 730 732 735 737 740 742 743 745 746 747 747 749 751 753 756 758 760 762 765 767 769 771 773 774 775 776 777 778 778 779 779 780 781 782 784 786 788 790 792 794 796 799 799 799 799 799 798 797 796 797 798 799 801 802 803 803 803 803 803 803 802 803
673 676 678 680 682 683 684 686 688 691 694 696 699 701 704 705 707 710 713 716 718 721 723 726 728 731 734 736 737 739 740 741 743 743 744 747 750 752 754 756 758 760 763 766 768 771 772 773 774 775 776 777 777 778 779 780 781 783 785 787 789 791 792 793 794 793 791 790 790 789 789 790 792 794 797 799 800 801 802 802 802 802 802 802 801
670 672 674 675 677 678 679 681 683 685 688 690 692 695 698 701 703 706 709 712 715 718 720 722 725 728 730 731 732 734 736 738 740 742 742 744 747 749 751 753 755 757 760 763 766 768 769 770 771 772 773 774 775 776 777 778 780 782 783 785 788 789 788 788 787 785 784 784 784 785 788 790 793 795 797 798 799 800 801 802 802 802 802 801 801
665 667 669 670 671 673 674 676 678 680 682 684 686 690 694 697 700 702 705 709 713 715 717 719 722 724 726 727 728 731 734 736 738 739 740 742 745 747 749 751 753 755 758 760 763 765 766 767 768 769 770 772 772 774 775 776 778 780 781 783 786 787 786 785 785 785 787 788 791 793 796 797 797 797 798 798 799 799 800 801 801 801 801 801 801
663 663 665 666 668 669 671 672 673 675 677 679 682 686 689 692 697 700 703 706 709 712 714 717 719 721 722 724 726 729 731 733 735 737 738 741 743 744 747 749 751 753 756 758 760 762 763 765 765 766 768 769 770 771 773 774 775 777 779 782 784 785 785 786 787 790 792 794 797 799 799 798 798 798 799 799 799 800 800 800 799 799 799 800 800
668 668 669 669 668 668 669 670 671 671 672 675 678 681 684 687 691 696 700 704 707 710 712 714 716 718 720 722 724 727 729 731 733 735 737 739 740 742 745 747 749 751 753 755 757 759 760 762 763 764 766 767 768 770 771 773 774 776 777 780 781 782 784 785 788 790 790 791 792 793 793 794 796 798 800 801 800 799 799 798 797 797 798 798 798
670 673 676 677 676 672 668 668 668 668 669 672 674 677 679 682 685 690 696 701 705 708 710 713 715 717 719 721 724 726 728 730 732 733 735 737 739 742 744 746 748 750 751 753 754 756 757 759 761 762 764 765 766 768 769 771 772 774 775 777 779 781 783 785 787 789 790 791 791 792 792 792 794 797 801 801 799 798 796 796 796 796 796 796 796
670 672 675 679 682 679 672 667 666 665 666 668 670 673 676 678 682 686 690 696 701 705 709 712 714 717 719 721 723 726 728 730 732 733 735 737 739 741 744 745 747 748 749 751 752 754 755 757 758 760 762 763 764 766 767 768 770 772 773 775 778 781 784 786 788 789 791 792 792 792 792 792 794 797 799 798 797 796 795 795 795 794 794 794 795
671 671 671 674 680 683 678 671 665 663 664 666 668 671 673 675 678 683 687 693 698 702 706 711 714 716 719 721 723 726 728 730 732 734 735 737 739 740 742 743 745 746 747 750 752 753 754 756 756 757 759 760 761 763 764 766 768 770 772 775 778 781 783 784 786 787 788 789 789 790 791 792 794 795 795 794 795 795 794 794 793 793 793 793 794
674 673 671 670 675 682 684 678 670 664 662 664 667 670 673 677 681 684 688 692 695 700 705 709 713 716 719 721 723 725 727 730 732 734 736 738 739 741 742 743 745 746 748 749 751 752 753 754 754 755 756 757 759 761 763 765 768 770 773 775 778 780 782 784 785 785 786 786 787 788 789 791 792 792 793 793 794 794 793 793 792 792 792 793 793
678 676 672 670 675 682 685 681 675 668 663 664 667 671 677 684 687 688 690 692 696 700 705 709 712 715 718 720 723 725 727 730 732 734 736 738 739 741 743 743 744 746 747 749 750 751 752 753 754 754 755 756 758 760 762 765 768 770 772 774 776 778 780 783 784 785 785 786 787 788 789 790 792 792 793 793 793 793 792 792 791 792 792 792 792
681 679 674 671 677 685 685 681 679 674 667 665 669 674 680 687 690 690 692 695 698 701 705 709 712 716 718 720 723 725 728 730 732 734 736 738 740 742 742 743 744 745 747 749 751 752 753 754 755 756 757 758 759 761 763 764 767 769 771 773 775 777 779 781 783 784 785 786 787 788 789 791 792 792 792 792 792 792 792 792 791 791 791 791 791
686 685 679 675 680 688 688 684 682 679 673 671 673 676 681 686 689 691 694 696 699 702 706 710 713 716 718 721 723 726 728 730 732 735 737 739 740 741 742 743 745 746 748 750 752 753 755 756 757 757 758 759 761 763 764 766 768 770 772 774 776 778 779 781 782 783 784 785 786 787 789 790 791 791 791 791 791 791 791 791 791 791 791 791 791
691 691 686 680 680 686 688 686 683 680 679 679 680 681 684 687 690 692 695 698 701 705 708 712 716 718 720 722 724 726 728 730 733 736 738 739 741 742 743 744 746 747 749 751 753 754 756 758 759 759 759 760 762 764 766 768 770 771 773 775 777 778 779 780 781 782 783 784 785 786 788 788 789 789 789 789 790 790 790 790 790 790 790 790 790
694 694 692 686 683 687 690 689 686 685 686 687 688 689 690 691 694 696 699 702 705 708 711 715 718 720 722 723 724 726 728 731 734 736 738 740 742 744 745 746 747 749 750 752 753 755 756 758 759 760 760 761 762 764 766 768 770 772 774 775 776 777 778 779 781 782 783 784 784 785 786 786 786 787 787 788 789 789 789 789 789 789 789 789 789
697 697 695 692 690 692 694 693 690 691 694 696 697 697 697 698 701 703 705 707 710 712 714 718 721 722 724 726 726 727 729 732 735 737 740 742 744 746 748 750 751 752 752 753 755 756 758 758 760 761 761 762 764 765 767 769 770 771 773 775 776 777 779 780 781 781 782 782 783 783 784 784 785 786 787 787 788 788 788 788 789 789 789 789 788
700 699 698 697 696 697 698 696 694 696 702 704 704 704 705 707 708 709 710 712 715 716 719 721 724 725 727 728 729 730 732 735 737 739 742 744 746 749 751 753 754 755 756 757 758 759 760 760 761 762 764 765 766 767 769 770 771 772 774 775 777 778 779 780 781 782 782 783 783 784 784 785 785 786 787 788 788 789 789 789 789 789 789 789 788
702 703 703 702 700 699 701 701 699 700 704 708 710 712 713 715 716 717 716 717 718 720 722 724 727 729 730 731 733 734 736 738 740 742 744 746 749 751 753 755 756 757 758 759 760 762 763 764 765 765 766 768 769 770 771 772 773 774 776 777 779 780 781 781 782 783 784 784 784 785 785 786 786 787 788 788 789 790 790 790 790 789 789 789 788
703 704 705 705 704 703 704 706 705 704 707 712 717 721 723 724 724 724 723 723 723 724 724 727 730 732 734 735 737 739 741 742 744 746 748 750 752 754 756 758 760 761 762 762 762 763 765 766 767 768 769 770 771 772 773 774 775 776 778 779 780 781 783 784 784 785 785 785 785 786 787 787 787 788 789 789 790 791 791 791 790 790 790 789 789
705 705 706 708 709 709 709 710 711 712 715 720 725 729 731 732 731 729 729 728 727 727 728 731 734 736 738 740 741 743 745 747 749 751 753 755 756 758 759 761 762 764 765 765 765 766 767 768 769 770 771 772 773 774 775 776 777 778 779 780 781 783 784 785 785 786 786 786 787 787 787 788 788 788 789 790 790 791 791 790 790 790 789 789 789
710 710 711 712 715 716 716 717 718 719 722 727 732 735 737 738 736 734 733 733 732 732 734 736 738 740 742 744 746 748 750 751 752 754 756 757 759 760 761 762 764 765 767 767 768 769 770 772 773 773 774 774 775 776 777 778 778 779 780 781 782 783 784 785 786 786 787 787 788 788 789 789 789 790 790 791 791 791 791 790 790 789 789 789 788
717 716 716 718 719 720 720 722 723 724 725 730 736 739 741 741 740 738 737 737 737 738 739 741 743 744 746 748 751 753 754 755 756 756 757 759 760 761 762 763 764 766 767 770 772 773 774 776 776 777 777 777 777 778 779 779 780 781 781 782 783 784 785 785 786 787 788 788 789 789 790 791 791 791 791 791 791 791 790 790 790 789 789 788 788
723 723 722 722 722 722 722 723 725 726 729 733 738 742 744 744 744 743 742 742 742 743 745 746 747 748 749 752 754 756 757 759 760 760 761 761 763 764 764 765 767 768 771 773 775 777 778 779 780 780 781 781 781 781 781 782 783 783 784 784 785 785 786 787 787 788 789 789 790 790 791 791 791 791 791 791 791 790 790 790 789 789 788 788 787
728 728 728 726 724 724 723 724 727 730 733 737 741 744 747 748 747 747 746 746 747 748 750 751 752 753 754 756 757 759 760 762 763 764 765 766 767 767 767 769 771 773 775 776 778 781 783 783 784 785 785 785 785 785 785 785 786 787 788 788 788 788 788 788 789 789 790 791 791 791 791 791 790 791 791 790 790 789 789 788 788 787 787 787 786